Flag for U.S.A. Weather past 2 weeks in Midland, Texas, U.S.A.

Now
73 °F

Mostly cloudy.


Feels Like: 74 °F
Forecast: 70 / 84 °F
Wind: 9 mph from Southeast

Location: Midland - Midland Airpark

Current Time: May 28, 2015 at 7:15:25 AM

Latest Report: May 28, 2015 at 6:55 AM


Visibility: 10 mi

Pressure: 30.05 "Hg

Humidity: 79%

Dew point: 67 °F

Location of MidlandLocation

Historic Weather in Midland — Graph

°F

Midland temperature yesterday

Maximum temperature yesterday: 91 °F (at 4:15 PM)
Minimum temperature yesterday: 70 °F (at 5:15 AM)
Average temperature yesterday: 80 °F

Past Weeks' High & Low Weather Summary

 TemperatureHumidityPressure
High91 °F (May 27, 4:15 PM)100% (May 13, 6:15 AM)30.25 "Hg (May 13, 6:15 AM)
Low52 °F (May 21, 7:35 AM)13% (May 26, 6:15 PM)29.76 "Hg (May 16, 3:55 PM)
Average72 °F64%29.99 "Hg
* Reported May 13 6:15 AM — May 28 6:15 AM, Midland, Weather by CustomWeather, © 2015

Note: Actual official high and low records may vary slightly from our data, if they occured in-between our weather recording intervals... More about our weather records

Advertising

Midland weather history for previous 24 hours

 ConditionsComfort  
Time TempWeatherWind HumidityBarometerVisibility
6:15 AM
Thu, May 28
72 °FMostly cloudy.8 mph83%30.04 "Hg10 mi
5:55 AM72 °FPassing clouds.5 mph84%30.02 "Hg10 mi
5:35 AM72 °FPassing clouds.7 mph84%30.01 "Hg10 mi
5:15 AM72 °FPassing clouds.8 mph82%30.00 "Hg10 mi
4:55 AM72 °FPassing clouds.8 mph81%30.00 "Hg10 mi
4:35 AM72 °FClear.12 mph80%29.99 "Hg10 mi
4:15 AM72 °FClear.13 mph79%29.98 "Hg10 mi
3:55 AM72 °FClear.12 mph78%29.98 "Hg10 mi
3:35 AM73 °FClear.14 mph76%29.97 "Hg10 mi
3:15 AM73 °FClear.14 mph75%29.97 "Hg10 mi
2:55 AM73 °FClear.18 mph74%29.97 "Hg10 mi
2:35 AM74 °FClear.16 mph73%29.97 "Hg10 mi
2:15 AM74 °FClear.20 mph72%29.97 "Hg10 mi
1:55 AM74 °FClear.18 mph71%29.96 "Hg10 mi
1:35 AM74 °FClear.18 mph71%29.96 "Hg10 mi
1:15 AM75 °FClear.15 mph69%29.98 "Hg10 mi
12:55 AM76 °FClear.15 mph67%29.98 "Hg10 mi
12:35 AM76 °FClear.16 mph67%29.99 "Hg10 mi
12:15 AM77 °FClear.21 mph66%30.00 "Hg10 mi
11:55 PM
Wed, May 27
78 °FClear.22 mph66%30.01 "Hg10 mi
11:35 PM79 °FClear.20 mph65%30.02 "Hg10 mi
11:15 PM79 °FClear.20 mph64%30.03 "Hg10 mi
10:15 PM82 °FPassing clouds.13 mph55%30.03 "Hg10 mi
9:55 PM82 °FPassing clouds.3 mph58%30.04 "Hg10 mi
9:35 PM82 °FSunny.10 mph56%30.02 "Hg10 mi
9:15 PM82 °FSunny.12 mph55%30.02 "Hg10 mi
8:55 PM83 °FSunny.10 mph54%30.03 "Hg10 mi
8:15 PM84 °FSunny.15 mph50%29.99 "Hg10 mi
7:55 PM85 °FSunny.14 mph47%29.98 "Hg10 mi
7:35 PM86 °FSunny.16 mph44%29.96 "Hg10 mi
7:15 PM86 °FSunny.14 mph42%29.95 "Hg10 mi
6:55 PM87 °FSunny.16 mph39%29.96 "Hg10 mi
6:35 PM88 °FSunny.14 mph38%29.95 "Hg10 mi
6:15 PM89 °FSunny.15 mph36%29.95 "Hg10 mi
5:55 PM90 °FScattered clouds.14 mph36%29.96 "Hg10 mi
5:35 PM90 °FScattered clouds.14 mph34%29.97 "Hg10 mi
5:15 PM91 °FScattered clouds.15 mph34%29.98 "Hg10 mi
4:55 PM90 °FScattered clouds.13 mph36%29.99 "Hg10 mi
4:15 PM91 °FScattered clouds.15 mph36%30.00 "Hg10 mi
3:55 PM89 °FScattered clouds.14 mph39%30.01 "Hg10 mi
3:35 PM90 °FScattered clouds.14 mph38%30.02 "Hg10 mi
3:15 PM90 °FScattered clouds.12 mph38%30.03 "Hg10 mi
2:55 PM89 °FScattered clouds.12 mph40%30.03 "Hg10 mi
2:35 PM88 °FScattered clouds.9 mph43%30.04 "Hg10 mi
2:15 PM88 °FScattered clouds.12 mph45%30.04 "Hg10 mi
1:55 PM88 °FScattered clouds.12 mph44%30.05 "Hg10 mi
1:15 PM86 °FScattered clouds.14 mph49%30.07 "Hg10 mi
12:55 PM86 °FScattered clouds.14 mph49%30.07 "Hg10 mi
12:35 PM85 °FScattered clouds.14 mph51%30.07 "Hg10 mi
12:15 PM84 °FScattered clouds.10 mph54%30.07 "Hg10 mi
11:55 AM84 °FPartly sunny.10 mph56%30.08 "Hg10 mi
11:35 AM83 °FScattered clouds.13 mph56%30.08 "Hg10 mi
11:15 AM81 °FScattered clouds.15 mph59%30.08 "Hg10 mi
10:55 AM80 °FPartly sunny.13 mph64%30.09 "Hg7 mi
10:15 AM78 °FBroken clouds.16 mph71%30.09 "Hg7 mi
9:55 AM77 °FMostly cloudy.10 mph73%30.09 "Hg7 mi
9:35 AM76 °FMostly cloudy.12 mph77%30.09 "Hg7 mi
9:15 AM75 °FMostly cloudy.12 mph80%30.09 "Hg7 mi
8:55 AM74 °FMore clouds than sun.13 mph82%30.08 "Hg5 mi
8:35 AM73 °FMostly cloudy.12 mph84%30.08 "Hg5 mi
8:15 AM73 °FLow clouds.9 mph86%30.07 "Hg5 mi
7:55 AM72 °FFog.12 mph87%30.07 "Hg5 mi
7:35 AM72 °FFog.9 mph87%30.07 "Hg4 mi
7:15 AM72 °FFog.7 mph91%30.06 "Hg4 mi
Weather by CustomWeather, © 2015

See weather overviewHow to use our weather pages